Location: Athens-Covington-Pier
(33.9360°N, 83.4200°W)
Time: 11:39:38
(UTC-04:00)

N. Korean satellite - Visible Passes

Search period start: 18 March 2019 00:00
Search period end: 28 March 2019 00:00
Orbit: 455 x 511 km, 97.2° (Epoch: 18 March)

Date Brightness Start Highest point End Pass type
(mag) Time Alt. Az. Time Alt. Az. Time Alt. Az.
18 Mar 9.1 07:06:50 10° NE 07:09:52 26° E 07:12:55 10° SSE visible
19 Mar 10.1 06:43:23 10° ENE 06:44:57 12° E 06:46:32 10° ESE visible
22 Mar 9.5 07:01:09 10° NE 07:04:01 23° E 07:06:55 10° SSE visible
23 Mar 10.4 06:38:17 10° E 06:39:05 11° E 06:39:53 10° ESE visible
26 Mar 9.7 06:55:28 10° NE 06:58:08 19° E 07:00:49 10° SE visible
